Weather History for Schaffen, Belgium

Change the Weather History Date:

Thursday, June 20, 2013

  Actual Average Record
Temperature  
Mean Temperature 72 °F -  
Max Temperature 78 °F 64 °F 78 °F (2013)
Min Temperature 65 °F 55 °F 46 °F (2011)
Cooling Degree Days 6    
Growing Degree Days 22 (Base 50)    
Moisture  
Dew Point 63 °F    
Average Humidity 79    
Maximum Humidity 94    
Minimum Humidity 48    
Precipitation  
Precipitation 0.04 in - - ()
Sea Level Pressure  
Sea Level Pressure 29.90 in    
Wind  
Wind Speed 5 mph ()    
Max Wind Speed 10 mph    
Max Gust Speed -    
Visibility 5.5 miles    
Events Rain , Thunderstorm    
Averages and records for this station are not official NWS values.
T = Trace of Precipitation, MM = Missing Value Source: Averaged Metar Reports

Daily Weather History Graph

Daily Weather History Graph

Search for Another Location

Airport:

Trip Planner

Search our weather history database for the weather conditions in past years. The results will help you decide how hot, cold, wet, or windy it might be!

Date:

Astronomy

Jun. 20, 2013 Rise Set
Actual Time 5:24 AM CEST 9:57 PM CEST
Civil Twilight 4:38 AM CEST 10:44 PM CEST
Nautical Twilight 3:26 AM CEST 11:55 PM CEST
Astronomical Twilight 2:13 AM CEST 1:08 AM CEST
Moon 6:27 PM CEST (6/20) 2:58 AM CEST (6/20)
Length of Visible Light 18h 06m
Length of Day
16h 32m
Waxing Gibbous, 87% of the Moon is Illuminated
Jun 20
Waxing Gibbous
Jun 23
Full
Jun 30
Last Quarter
Jul 8
New
Jul 16
First Quarter

Hourly Weather History & Observations

Time (CEST) Temp. Dew Point Humidity Pressure Visibility Wind Dir Wind Speed Gust Speed Precip Events Conditions
12:25 AM 71.6 °F 62.6 °F 73% 29.95 in 6.2 mi NNW 6.9 mph - N/A   Mostly Cloudy
1:25 AM 69.8 °F 62.6 °F 78% 29.95 in 6.2 mi Variable 2.3 mph - N/A   Mostly Cloudy
2:00 AM 69 °F 63 °F 75% 29.96 in 7 mi 2.2 mph - - Rain Light Rain Showers
2:25 AM 68.0 °F 62.6 °F 83% 29.95 in 5.6 mi Variable 2.3 mph - N/A Rain Light Rain Showers
2:47 AM 68.0 °F 62.6 °F 83% 29.95 in 4.3 mi Variable 1.2 mph - N/A   Mostly Cloudy
2:58 AM 68.0 °F 62.6 °F 83% 29.95 in 5.0 mi Variable 3.5 mph - N/A   Mostly Cloudy
3:19 AM 66.2 °F 62.6 °F 88% 29.92 in 4.3 mi NE 6.9 mph - N/A Rain Light Rain Showers
3:25 AM 66.2 °F 62.6 °F 88% 29.92 in 3.7 mi NNE 10.4 mph - N/A Rain Light Rain Showers
4:25 AM 68.0 °F 62.6 °F 83% 29.92 in 3.7 mi Variable 3.5 mph - N/A   Mostly Cloudy
5:00 AM 67 °F 63 °F 83% 29.93 in 4 mi East 4.5 mph - -   Clear
5:21 AM 66.2 °F 62.6 °F 88% 29.92 in 2.8 mi NNE 4.6 mph - N/A   Mostly Cloudy
5:25 AM 66.2 °F 62.6 °F 88% 29.92 in 2.8 mi NNE 4.6 mph - N/A   Mostly Cloudy
5:49 AM 66.2 °F 62.6 °F 88% 29.89 in 3.7 mi NNE 5.8 mph - N/A   Mostly Cloudy
6:25 AM 66.2 °F 62.6 °F 88% 29.89 in 4.3 mi East 4.6 mph - N/A Rain Light Rain
7:25 AM 66.2 °F 62.6 °F 88% 29.92 in 3.7 mi ESE 4.6 mph - N/A   Mostly Cloudy
8:00 AM 66 °F 63 °F 87% 29.94 in 3 mi South 6.7 mph - - Rain Light Rain Showers
8:25 AM 66.2 °F 64.4 °F 94% 29.92 in 3.1 mi South 4.6 mph - N/A Rain Light Rain Showers
8:30 AM 68.0 °F 64.4 °F 88% 29.92 in 2.5 mi Variable 3.5 mph - N/A Rain Light Rain Showers
9:00 AM 66.2 °F 64.4 °F 94% 29.92 in 3.7 mi Variable 3.5 mph - N/A   Mostly Cloudy
9:25 AM 68.0 °F 66.2 °F 94% 29.92 in 3.1 mi Calm Calm - N/A   Mostly Cloudy
10:10 AM 69.8 °F 66.2 °F 88% 29.95 in 3.1 mi South 8.1 mph - N/A   Mostly Cloudy
10:25 AM 69.8 °F 66.2 °F 88% 29.95 in 3.1 mi South 8.1 mph - N/A   Mostly Cloudy
10:39 AM 71.6 °F 66.2 °F 83% 29.98 in 5.0 mi South 8.1 mph - N/A   Mostly Cloudy
11:00 AM 71 °F 63 °F 70% 29.96 in 5 mi SSW 8.9 mph - -   Partly Cloudy
11:25 AM 71.6 °F 64.4 °F 78% 29.95 in 5.6 mi SSW 8.1 mph - N/A   Overcast
12:25 PM 71.6 °F 64.4 °F 78% 29.92 in 6.2 mi SW 6.9 mph - N/A Rain Light Rain Showers
12:49 PM 69.8 °F 64.4 °F 83% 29.92 in 6.2 mi SW 8.1 mph - N/A Rain , Thunderstorm Light Rain Showers
1:25 PM 69.8 °F 64.4 °F 83% 29.92 in 6.2 mi SSW 6.9 mph - N/A   Mostly Cloudy
2:00 PM 69 °F 64 °F 80% 29.94 in 16 mi SSE 4.5 mph - - Thunderstorm Light Thunderstorm
2:25 PM 68.0 °F 64.4 °F 88% 29.92 in 6.2 mi SE 5.8 mph - N/A Rain , Thunderstorm Light Rain Showers
2:36 PM 68.0 °F 66.2 °F 94% 29.89 in 6.2 mi SE 5.8 mph - N/A   Mostly Cloudy
3:25 PM 71.6 °F 62.6 °F 73% 29.83 in 6.2 mi Variable 3.5 mph - N/A   Mostly Cloudy
4:25 PM 75.2 °F 64.4 °F 69% 29.83 in 6.2 mi NNE 5.8 mph - N/A   Scattered Clouds
5:00 PM 78 °F 64 °F 52% 29.86 in 19 mi SW 4.5 mph - -   Partly Cloudy
5:25 PM 77.0 °F 62.6 °F 61% 29.86 in 6.2 mi SSW 4.6 mph - N/A   Partly Cloudy
6:25 PM 77.0 °F 64.4 °F 65% 29.83 in 6.2 mi Variable 3.5 mph - N/A   Partly Cloudy
7:25 PM 77.0 °F 62.6 °F 61% 29.83 in 6.2 mi Variable 3.5 mph - N/A   Partly Cloudy
8:00 PM 77 °F 61 °F 48% 29.84 in 25 mi 4.5 mph - -   Clear
8:25 PM 75.2 °F 60.8 °F 61% 29.83 in 6.2 mi Variable 3.5 mph - N/A Rain Light Rain Showers
9:25 PM 75.2 °F 62.6 °F 65% 29.80 in 6.2 mi Variable 2.3 mph - N/A   Mostly Cloudy
10:25 PM 71.6 °F 60.8 °F 69% 29.80 in 6.2 mi South 8.1 mph - N/A   Mostly Cloudy
11:00 PM 71 °F 61 °F 64% 29.83 in 28 mi South 6.7 mph - -   Clear
11:25 PM 69.8 °F 62.6 °F 78% 29.83 in 6.2 mi SSE 8.1 mph - N/A   Mostly Cloudy